Location: *
(33.8649°S, 62.1526°E)
Time: 20:41:11
(UTC+00:00)

Tiangong - Pass Details

Date: 25 September 2021
Orbit: 382 x 385 km, 41.5° (Epoch: 19 October)

Event Time Altitude Azimuth Distance (km) Brightness Sun altitude
Rises 15:00:02 0° 254° (WSW) 2,285 6.9 -15.3°
Reaches altitude 10° 15:02:27 10° 237° (WSW) 1,431 5.1 -15.8°
Maximum altitude 15:05:00 21° 185° (S) 946 3.2 -16.3°
Enters shadow 15:06:32 16° 148° (SSE) 1,145 3.3 -16.6°
